• în Republica Moldova
  • Lista ţărilor
  • Pe 7 zile
  • Temperatura apei
  • Hartă satelitară
  • Meteo pe hartă
  • Widget-uri
  • user-avatar
    Intrare

    Meteo pe oră la Lenkoran

    Astăzi, 20 August, Duminică

    Timp Temperatura Precipitaţii Vânt Presiune Umiditate
    00:00 +17°C° 0 mm 2 m/s 636 mmHg 48%
    01:00 +17°C° 0 mm 2 m/s 636 mmHg 47%
    02:00 +17°C° 0 mm 2 m/s 636 mmHg 47%
    03:00 +16°C° 0 mm 2 m/s 636 mmHg 47%
    04:00 +17°C° 0 mm 2 m/s 636 mmHg 46%
    05:00 +17°C° 0 mm 2 m/s 636 mmHg 46%
    06:00 +18°C° 0 mm 2 m/s 636 mmHg 45%
    07:00 +20°C° 0 mm 2 m/s 637 mmHg 42%
    08:00 +23°C° 0 mm 2 m/s 638 mmHg 38%
    09:00 +26°C° 0 mm 3 m/s 638 mmHg 34%
    10:00 +27°C° 0 mm 3 m/s 638 mmHg 31%
    11:00 +28°C° 0 mm 3 m/s 638 mmHg 28%
    12:00 +29°C° 0 mm 4 m/s 638 mmHg 25%
    13:00 +29°C° 0 mm 4 m/s 638 mmHg 25%
    14:00 +29°C° 0 mm 4 m/s 637 mmHg 25%
    15:00 +29°C° 0 mm 4 m/s 637 mmHg 25%
    16:00 +27°C° 0 mm 4 m/s 636 mmHg 28%
    17:00 +26°C° 0 mm 3 m/s 636 mmHg 31%
    18:00 +24°C° 0 mm 3 m/s 636 mmHg 34%
    19:00 +23°C° 0 mm 2 m/s 635 mmHg 37%
    20:00 +20°C° 0 mm 2 m/s 635 mmHg 40%
    21:00 +19°C° 0 mm 2 m/s 635 mmHg 43%
    22:00 +19°C° 0 mm 2 m/s 635 mmHg 43%
    23:00 +20°C° 0 mm 1 m/s 635 mmHg 43%

    Mâine, 21 August, Luni

    Timp Temperatura Precipitaţii Vânt Presiune Umiditate
    00:00 +19°C° 0 mm 1 m/s 635 mmHg 42%
    01:00 +19°C° 0 mm 1 m/s 635 mmHg 43%
    02:00 +19°C° 0 mm 1 m/s 634 mmHg 43%
    03:00 +19°C° 0 mm 1 m/s 634 mmHg 43%
    04:00 +19°C° 0 mm 1 m/s 634 mmHg 42%
    05:00 +19°C° 0 mm 1 m/s 635 mmHg 40%
    06:00 +20°C° 0 mm 1 m/s 635 mmHg 38%
    07:00 +22°C° 0 mm 1 m/s 635 mmHg 36%
    08:00 +24°C° 0 mm 2 m/s 636 mmHg 33%
    09:00 +26°C° 0 mm 2 m/s 636 mmHg 30%
    10:00 +27°C° 0 mm 3 m/s 636 mmHg 29%
    11:00 +28°C° 0 mm 3 m/s 636 mmHg 28%
    12:00 +29°C° 0 mm 3 m/s 636 mmHg 26%
    13:00 +29°C° 0 mm 3 m/s 636 mmHg 27%
    14:00 +30°C° 0 mm 3 m/s 635 mmHg 27%
    15:00 +30°C° 0 mm 4 m/s 635 mmHg 28%
    16:00 +28°C° 0 mm 3 m/s 635 mmHg 32%
    17:00 +27°C° 0 mm 3 m/s 634 mmHg 37%
    18:00 +25°C° 0 mm 2 m/s 634 mmHg 42%
    19:00 +24°C° 0 mm 2 m/s 634 mmHg 47%
    20:00 +21°C° 0 mm 2 m/s 633 mmHg 52%
    21:00 +21°C° 0 mm 1 m/s 633 mmHg 56%
    22:00 +21°C° 0 mm 1 m/s 633 mmHg 56%
    23:00 +20°C° 0 mm 1 m/s 633 mmHg 56%

    Poimâine, 22 August, Marţi

    Timp Temperatura Precipitaţii Vânt Presiune Umiditate
    00:00 +20°C° 0 mm 1 m/s 633 mmHg 55%
    01:00 +20°C° 0 mm 1 m/s 633 mmHg 55%
    02:00 +19°C° 0 mm 1 m/s 633 mmHg 55%
    03:00 +17°C° 0 mm 0 m/s 632 mmHg 56%
    04:00 +17°C° 0 mm 0 m/s 633 mmHg 54%
    05:00 +20°C° 0 mm 1 m/s 633 mmHg 51%
    06:00 +20°C° 0 mm 1 m/s 633 mmHg 49%
    07:00 +23°C° 0 mm 1 m/s 634 mmHg 44%
    08:00 +25°C° 0 mm 2 m/s 635 mmHg 38%
    09:00 +27°C° 0 mm 2 m/s 635 mmHg 32%
    10:00 +28°C° 0 mm 2 m/s 635 mmHg 30%
    11:00 +29°C° 0 mm 3 m/s 635 mmHg 28%
    12:00 +30°C° 0 mm 3 m/s 635 mmHg 25%
    13:00 +31°C° 0 mm 3 m/s 635 mmHg 25%
    14:00 +31°C° 0 mm 3 m/s 634 mmHg 24%
    15:00 +31°C° 0 mm 3 m/s 634 mmHg 24%
    16:00 +29°C° 0 mm 3 m/s 634 mmHg 28%
    17:00 +28°C° 0 mm 3 m/s 633 mmHg 32%
    18:00 +26°C° 0 mm 2 m/s 633 mmHg 36%
    19:00 +24°C° 0 mm 2 m/s 633 mmHg 40%
    20:00 +23°C° 0 mm 2 m/s 633 mmHg 45%
    21:00 +21°C° 0 mm 1 m/s 633 mmHg 50%
    22:00 +21°C° 0 mm 1 m/s 633 mmHg 49%
    23:00 +21°C° 0 mm 1 m/s 633 mmHg 49%

    23 August, Miercuri

    Timp Temperatura Precipitaţii Vânt Presiune Umiditate
    00:00 +20°C° 0 mm 1 m/s 633 mmHg 49%
    01:00 +20°C° 0 mm 1 m/s 633 mmHg 49%
    02:00 +19°C° 0 mm 1 m/s 633 mmHg 49%
    03:00 +19°C° 0 mm 1 m/s 633 mmHg 49%
    04:00 +20°C° 0 mm 1 m/s 633 mmHg 48%
    05:00 +20°C° 0 mm 1 m/s 633 mmHg 47%
    06:00 +20°C° 0 mm 1 m/s 634 mmHg 46%
    07:00 +23°C° 0 mm 2 m/s 635 mmHg 41%
    08:00 +25°C° 0 mm 2 m/s 636 mmHg 35%
    09:00 +28°C° 0 mm 3 m/s 636 mmHg 30%
    10:00 +29°C° 0 mm 3 m/s 636 mmHg 27%
    11:00 +30°C° 0 mm 3 m/s 636 mmHg 24%
    12:00 +32°C° 0 mm 4 m/s 637 mmHg 21%
    13:00 +32°C° 0 mm 4 m/s 636 mmHg 22%
    14:00 +32°C° 0 mm 4 m/s 636 mmHg 23%
    15:00 +32°C° 0 mm 4 m/s 636 mmHg 24%
    16:00 +29°C° 0 mm 3 m/s 635 mmHg 30%
    17:00 +27°C° 0 mm 3 m/s 635 mmHg 37%
    18:00 +25°C° 0 mm 2 m/s 635 mmHg 43%
    19:00 +24°C° 0 mm 2 m/s 635 mmHg 48%
    20:00 +21°C° 0 mm 2 m/s 635 mmHg 53%
    21:00 +21°C° 0 mm 1 m/s 635 mmHg 58%
    22:00 +20°C° 0 mm 1 m/s 635 mmHg 56%
    23:00 +20°C° 0 mm 1 m/s 635 mmHg 54%

    24 August, Joi

    Timp Temperatura Precipitaţii Vânt Presiune Umiditate
    00:00 +20°C° 0 mm 1 m/s 635 mmHg 52%
    01:00 +19°C° 0 mm 1 m/s 635 mmHg 52%
    02:00 +18°C° 0 mm 2 m/s 635 mmHg 52%
    03:00 +18°C° 0 mm 2 m/s 635 mmHg 53%
    04:00 +18°C° 0 mm 2 m/s 635 mmHg 53%
    05:00 +18°C° 0 mm 2 m/s 636 mmHg 53%
    06:00 +18°C° 0 mm 2 m/s 636 mmHg 53%
    07:00 +21°C° 0 mm 3 m/s 637 mmHg 45%
    08:00 +24°C° 0 mm 3 m/s 638 mmHg 37%
    09:00 +26°C° 0 mm 4 m/s 639 mmHg 29%
    10:00 +27°C° 0 mm 4 m/s 639 mmHg 25%
    11:00 +29°C° 0 mm 4 m/s 639 mmHg 22%
    12:00 +30°C° 0 mm 5 m/s 639 mmHg 18%
    13:00 +29°C° 0 mm 5 m/s 639 mmHg 18%
    14:00 +29°C° 0 mm 5 m/s 639 mmHg 18%
    15:00 +29°C° 0 mm 5 m/s 639 mmHg 18%
    16:00 +27°C° 0 mm 4 m/s 638 mmHg 23%
    17:00 +25°C° 0 mm 3 m/s 638 mmHg 28%
    18:00 +22°C° 0 mm 3 m/s 637 mmHg 32%
    19:00 +21°C° 0 mm 2 m/s 637 mmHg 37%
    20:00 +19°C° 0 mm 2 m/s 637 mmHg 42%
    21:00 +17°C° 0 mm 2 m/s 637 mmHg 47%
    22:00 +17°C° 0 mm 2 m/s 637 mmHg 42%
    23:00 +18°C° 0 mm 1 m/s 637 mmHg 38%

    25 August, Vineri

    Timp Temperatura Precipitaţii Vânt Presiune Umiditate
    00:00 +18°C° 0 mm 1 m/s 637 mmHg 34%
    01:00 +16°C° 0 mm 1 m/s 637 mmHg 33%
    02:00 +16°C° 0 mm 1 m/s 636 mmHg 33%
    03:00 +15°C° 0 mm 1 m/s 636 mmHg 32%
    04:00 +16°C° 0 mm 1 m/s 637 mmHg 33%
    05:00 +16°C° 0 mm 2 m/s 637 mmHg 34%
    06:00 +16°C° 0 mm 2 m/s 638 mmHg 35%
    07:00 +19°C° 0 mm 2 m/s 638 mmHg 30%
    08:00 +21°C° 0 mm 3 m/s 639 mmHg 26%
    09:00 +25°C° 0 mm 3 m/s 640 mmHg 21%
    10:00 +26°C° 0 mm 3 m/s 639 mmHg 21%
    11:00 +27°C° 0 mm 4 m/s 639 mmHg 20%
    12:00 +28°C° 0 mm 4 m/s 639 mmHg 20%
    13:00 +28°C° 0 mm 4 m/s 639 mmHg 22%
    14:00 +27°C° 0 mm 4 m/s 639 mmHg 24%
    15:00 +27°C° 0 mm 4 m/s 638 mmHg 25%
    16:00 +25°C° 0 mm 4 m/s 638 mmHg 34%
    17:00 +22°C° 0 mm 4 m/s 637 mmHg 42%
    18:00 +21°C° 0 mm 3 m/s 637 mmHg 50%
    19:00 +19°C° 0 mm 3 m/s 637 mmHg 58%
    20:00 +17°C° 0 mm 3 m/s 637 mmHg 66%
    21:00 +16°C° 0 mm 2 m/s 637 mmHg 74%
    22:00 +16°C° 0 mm 2 m/s 636 mmHg 73%
    23:00 +15°C° 0 mm 2 m/s 636 mmHg 72%
    Arată mai mult